Time,TemperatureF,DewpointF,PressureIn,WindDirection,WindDirectionDegrees,WindSpeedMPH,WindSpeedGustMPH,Humidity,HourlyPrecipIn,Conditions,Clouds,dailyrainin,SoftwareType,DateUTC
2013-01-13 00:03:00,54.0,51.0,30.22,SSE,157,1.0,3.0,91,0.00,,,0.00,TxWx,2013-01-13 05:03:00,
2013-01-13 00:04:00,54.0,51.0,30.22,SSE,157,1.0,2.0,91,0.00,,,0.00,TxWx,2013-01-13 05:04:00,
2013-01-13 00:05:00,54.0,51.0,30.22,SE,135,1.0,3.0,91,0.00,,,0.00,TxWx,2013-01-13 05:05:00,
2013-01-13 00:11:00,54.0,51.0,30.22,SSW,202,0.0,3.0,91,0.00,,,0.00,TxWx,2013-01-13 05:11:00,
2013-01-13 00:16:00,54.0,51.0,30.22,SSE,157,1.0,3.0,91,0.00,,,0.00,TxWx,2013-01-13 05:16:00,
2013-01-13 00:22:00,54.0,51.0,30.21,East,90,1.0,3.0,91,0.00,,,0.00,TxWx,2013-01-13 05:22:00,
2013-01-13 00:27:00,54.0,51.0,30.21,South,180,3.0,3.0,91,0.00,,,0.00,TxWx,2013-01-13 05:27:00,
2013-01-13 00:33:00,54.0,52.0,30.21,ESE,112,1.0,2.0,92,0.00,,,0.00,TxWx,2013-01-13 05:33:00,
2013-01-13 00:38:00,53.0,51.0,30.21,NNW,337,1.0,1.0,92,0.00,,,0.00,TxWx,2013-01-13 05:38:00,
2013-01-13 00:43:00,53.0,51.0,30.20,NNW,337,1.0,1.0,92,0.00,,,0.00,TxWx,2013-01-13 05:43:00,
2013-01-13 00:49:00,53.0,51.0,30.20,WNW,292,0.0,1.0,92,0.00,,,0.00,TxWx,2013-01-13 05:49:00,
2013-01-13 00:55:00,53.0,51.0,30.20,ENE,67,1.0,1.0,93,0.00,,,0.00,TxWx,2013-01-13 05:55:00,
2013-01-13 01:00:00,52.0,50.0,30.19,North,0,1.0,2.0,93,0.00,,,0.00,TxWx,2013-01-13 06:00:00,
2013-01-13 01:05:00,52.0,50.0,30.19,North,0,0.0,1.0,94,0.00,,,0.00,TxWx,2013-01-13 06:05:00,
2013-01-13 01:11:00,52.0,50.0,30.18,North,0,1.0,1.0,94,0.00,,,0.00,TxWx,2013-01-13 06:11:00,
2013-01-13 01:16:00,52.0,50.0,30.18,NW,315,1.0,1.0,95,0.00,,,0.00,TxWx,2013-01-13 06:16:00,
2013-01-13 01:21:00,52.0,51.0,30.18,NW,315,0.0,1.0,95,0.00,,,0.00,TxWx,2013-01-13 06:21:00,
2013-01-13 01:27:00,51.0,49.0,30.18,North,0,0.0,0.0,95,0.00,,,0.00,TxWx,2013-01-13 06:27:00,
2013-01-13 01:32:00,51.0,50.0,30.19,WNW,292,1.0,1.0,95,0.00,,,0.00,TxWx,2013-01-13 06:32:00,
2013-01-13 01:37:00,51.0,50.0,30.19,East,90,0.0,1.0,95,0.00,,,0.00,TxWx,2013-01-13 06:37:00,
2013-01-13 01:43:00,51.0,50.0,30.19,NNW,337,1.0,1.0,96,0.00,,,0.00,TxWx,2013-01-13 06:43:00,
2013-01-13 01:48:00,51.0,50.0,30.19,North,0,1.0,1.0,96,0.00,,,0.00,TxWx,2013-01-13 06:48:00,
2013-01-13 01:53:00,51.0,50.0,30.20,SSW,202,0.0,1.0,96,0.00,,,0.00,TxWx,2013-01-13 06:53:00,
2013-01-13 01:58:00,51.0,50.0,30.19,NNE,22,1.0,1.0,96,0.00,,,0.00,TxWx,2013-01-13 06:58:00,
2013-01-13 02:04:00,51.0,50.0,30.18,NE,45,3.0,3.0,97,0.00,,,0.00,TxWx,2013-01-13 07:04:00,
2013-01-13 02:09:00,51.0,50.0,30.18,ESE,112,3.0,3.0,97,0.00,,,0.00,TxWx,2013-01-13 07:09:00,
2013-01-13 02:15:00,51.0,50.0,30.16,NE,45,3.0,3.0,97,0.00,,,0.00,TxWx,2013-01-13 07:15:00,
2013-01-13 02:21:00,51.0,50.0,30.16,East,90,2.0,4.0,97,0.00,,,0.00,TxWx,2013-01-13 07:21:00,
2013-01-13 02:26:00,51.0,50.0,30.17,ESE,112,5.0,6.0,96,0.00,,,0.00,TxWx,2013-01-13 07:26:00,
2013-01-13 02:32:00,52.0,51.0,30.16,East,90,3.0,4.0,96,0.00,,,0.00,TxWx,2013-01-13 07:32:00,
2013-01-13 02:37:00,52.0,51.0,30.14,ENE,67,4.0,5.0,95,0.00,,,0.00,TxWx,2013-01-13 07:37:00,
2013-01-13 02:43:00,52.0,51.0,30.17,SE,135,3.0,5.0,95,0.00,,,0.00,TxWx,2013-01-13 07:43:00,
2013-01-13 02:48:00,52.0,51.0,30.16,ENE,67,3.0,3.0,95,0.00,,,0.00,TxWx,2013-01-13 07:48:00,
2013-01-13 02:54:00,52.0,51.0,30.15,ESE,112,3.0,4.0,95,0.00,,,0.00,TxWx,2013-01-13 07:54:00,
2013-01-13 03:00:00,52.0,51.0,30.14,SE,135,3.0,4.0,95,0.00,,,0.00,TxWx,2013-01-13 08:00:00,
2013-01-13 03:05:00,52.0,51.0,30.13,East,90,3.0,4.0,95,0.00,,,0.00,TxWx,2013-01-13 08:05:00,
2013-01-13 03:10:00,52.0,51.0,30.13,SE,135,5.0,5.0,95,0.00,,,0.01,TxWx,2013-01-13 08:10:00,
2013-01-13 03:16:00,52.0,51.0,30.12,ESE,112,2.0,3.0,96,0.00,,,0.01,TxWx,2013-01-13 08:16:00,
2013-01-13 03:21:00,52.0,51.0,30.12,ESE,112,3.0,3.0,96,0.06,,,0.01,TxWx,2013-01-13 08:21:00,
2013-01-13 03:26:00,52.0,51.0,30.12,East,90,1.0,3.0,96,0.06,,,0.05,TxWx,2013-01-13 08:26:00,
2013-01-13 03:32:00,52.0,51.0,30.12,ENE,67,2.0,3.0,97,0.24,,,0.13,TxWx,2013-01-13 08:32:00,
2013-01-13 03:37:00,52.0,51.0,30.12,ENE,67,1.0,3.0,97,0.66,,,0.17,TxWx,2013-01-13 08:37:00,
2013-01-13 03:42:00,52.0,51.0,30.12,NE,45,2.0,3.0,98,0.66,,,0.21,TxWx,2013-01-13 08:42:00,
2013-01-13 03:48:00,52.0,51.0,30.13,ENE,67,1.0,1.0,98,0.48,,,0.27,TxWx,2013-01-13 08:48:00,
2013-01-13 03:54:00,52.0,52.0,30.12,NE,45,2.0,3.0,99,0.48,,,0.35,TxWx,2013-01-13 08:54:00,
2013-01-13 03:59:00,52.0,52.0,30.11,NE,45,3.0,4.0,99,0.72,,,0.38,TxWx,2013-01-13 08:59:00,
2013-01-13 04:05:00,52.0,52.0,30.09,NE,45,3.0,4.0,99,0.72,,,0.39,TxWx,2013-01-13 09:05:00,
2013-01-13 04:10:00,52.0,52.0,30.09,ENE,67,2.0,3.0,99,0.18,,,0.39,TxWx,2013-01-13 09:10:00,
2013-01-13 04:15:00,52.0,52.0,30.08,ENE,67,3.0,6.0,100,0.18,,,0.39,TxWx,2013-01-13 09:15:00,
2013-01-13 04:21:00,52.0,52.0,30.08,East,90,3.0,6.0,100,0.00,,,0.39,TxWx,2013-01-13 09:21:00,
2013-01-13 04:26:00,52.0,52.0,30.07,East,90,2.0,5.0,100,0.00,,,0.39,TxWx,2013-01-13 09:26:00,
2013-01-13 04:32:00,52.0,52.0,30.06,East,90,4.0,5.0,100,0.00,,,0.39,TxWx,2013-01-13 09:32:00,
2013-01-13 04:37:00,52.0,52.0,30.05,SE,135,2.0,3.0,100,0.00,,,0.39,TxWx,2013-01-13 09:37:00,
2013-01-13 04:42:00,52.0,52.0,30.05,East,90,2.0,3.0,100,0.00,,,0.39,TxWx,2013-01-13 09:42:00,
2013-01-13 04:48:00,52.0,52.0,30.05,ESE,112,5.0,5.0,100,0.06,,,0.40,TxWx,2013-01-13 09:48:00,
2013-01-13 04:53:00,52.0,52.0,30.04,ESE,112,4.0,5.0,100,0.06,,,0.40,TxWx,2013-01-13 09:53:00,
2013-01-13 04:58:00,52.0,52.0,30.04,East,90,3.0,5.0,100,0.00,,,0.40,TxWx,2013-01-13 09:58:00,
2013-01-13 05:04:00,53.0,53.0,30.04,ESE,112,3.0,5.0,100,0.00,,,0.40,TxWx,2013-01-13 10:04:00,
2013-01-13 05:09:00,53.0,53.0,30.04,ESE,112,4.0,5.0,100,0.00,,,0.40,TxWx,2013-01-13 10:09:00,
2013-01-13 05:14:00,53.0,53.0,30.03,ESE,112,5.0,5.0,100,0.00,,,0.40,TxWx,2013-01-13 10:14:00,
2013-01-13 05:20:00,53.0,53.0,30.02,ESE,112,6.0,8.0,100,0.00,,,0.40,TxWx,2013-01-13 10:20:00,
2013-01-13 05:25:00,54.0,54.0,30.02,ESE,112,3.0,8.0,99,0.00,,,0.40,TxWx,2013-01-13 10:25:00,
2013-01-13 05:30:00,54.0,53.0,30.02,ESE,112,3.0,5.0,98,0.00,,,0.40,TxWx,2013-01-13 10:30:00,
2013-01-13 05:36:00,54.0,53.0,30.02,South,180,3.0,6.0,97,0.00,,,0.40,TxWx,2013-01-13 10:36:00,
2013-01-13 05:41:00,55.0,54.0,30.02,SE,135,5.0,8.0,96,0.00,,,0.40,TxWx,2013-01-13 10:41:00,
2013-01-13 05:46:00,55.0,54.0,30.01,SSE,157,5.0,8.0,95,0.00,,,0.40,TxWx,2013-01-13 10:46:00,
2013-01-13 05:52:00,55.0,53.0,30.01,ESE,112,3.0,4.0,94,0.00,,,0.40,TxWx,2013-01-13 10:52:00,
2013-01-13 05:57:00,55.0,53.0,30.01,South,180,3.0,4.0,93,0.00,,,0.40,TxWx,2013-01-13 10:57:00,
2013-01-13 06:02:00,55.0,53.0,30.01,SSW,202,3.0,6.0,92,0.00,,,0.40,TxWx,2013-01-13 11:02:00,
2013-01-13 06:08:00,55.0,53.0,30.01,SSE,157,5.0,7.0,92,0.00,,,0.40,TxWx,2013-01-13 11:08:00,
2013-01-13 06:13:00,56.0,53.0,30.01,SE,135,6.0,7.0,91,0.00,,,0.40,TxWx,2013-01-13 11:13:00,
2013-01-13 06:19:00,56.0,53.0,30.01,SSE,157,1.0,4.0,90,0.00,,,0.40,TxWx,2013-01-13 11:19:00,
2013-01-13 06:24:00,56.0,53.0,30.01,ESE,112,2.0,6.0,90,0.00,,,0.40,TxWx,2013-01-13 11:24:00,
2013-01-13 06:29:00,56.0,53.0,30.01,SSE,157,3.0,5.0,90,0.00,,,0.40,TxWx,2013-01-13 11:29:00,
2013-01-13 06:34:00,56.0,53.0,30.01,SE,135,3.0,5.0,89,0.00,,,0.40,TxWx,2013-01-13 11:34:00,
2013-01-13 06:39:00,57.0,53.0,30.01,South,180,7.0,7.0,88,0.00,,,0.40,TxWx,2013-01-13 11:39:00,
2013-01-13 06:45:00,57.0,53.0,30.02,SSW,202,6.0,6.0,87,0.00,,,0.40,TxWx,2013-01-13 11:45:00,
2013-01-13 06:50:00,58.0,54.0,30.02,SSE,157,5.0,8.0,86,0.00,,,0.40,TxWx,2013-01-13 11:50:00,
2013-01-13 06:55:00,60.0,55.0,30.02,SW,225,5.0,13.0,83,0.00,,,0.40,TxWx,2013-01-13 11:55:00,
2013-01-13 07:02:00,61.0,54.0,30.02,WSW,247,10.0,18.0,79,0.00,,,0.40,TxWx,2013-01-13 12:02:00,
2013-01-13 07:07:00,62.0,55.0,30.03,SW,225,9.0,15.0,77,0.00,,,0.40,TxWx,2013-01-13 12:07:00,
2013-01-13 07:12:00,62.0,55.0,30.03,WSW,247,5.0,14.0,77,0.00,,,0.40,TxWx,2013-01-13 12:12:00,
2013-01-13 07:17:00,62.0,54.0,30.03,SSW,202,8.0,16.0,76,0.00,,,0.40,TxWx,2013-01-13 12:17:00,
2013-01-13 07:23:00,62.0,54.0,30.02,SW,225,5.0,11.0,76,0.00,,,0.40,TxWx,2013-01-13 12:23:00,
2013-01-13 07:28:00,62.0,54.0,30.02,SW,225,14.0,18.0,76,0.00,,,0.40,TxWx,2013-01-13 12:28:00,
2013-01-13 07:33:00,62.0,54.0,30.02,WSW,247,12.0,14.0,76,0.00,,,0.40,TxWx,2013-01-13 12:33:00,
2013-01-13 07:39:00,62.0,54.0,30.02,SSW,202,8.0,16.0,76,0.00,,,0.40,TxWx,2013-01-13 12:39:00,
2013-01-13 07:44:00,62.0,54.0,30.02,SW,225,11.0,12.0,76,0.00,,,0.40,TxWx,2013-01-13 12:44:00,
2013-01-13 07:49:00,62.0,54.0,30.03,SSW,202,7.0,11.0,76,0.00,,,0.40,TxWx,2013-01-13 12:49:00,
2013-01-13 07:55:00,62.0,54.0,30.03,SSW,202,6.0,13.0,76,0.00,,,0.40,TxWx,2013-01-13 12:55:00,
2013-01-13 08:00:00,61.0,54.0,30.03,SSW,202,8.0,9.0,77,0.00,,,0.40,TxWx,2013-01-13 13:00:00,
2013-01-13 08:05:00,61.0,54.0,30.03,SSE,157,6.0,13.0,78,0.00,,,0.40,TxWx,2013-01-13 13:05:00,
2013-01-13 08:11:00,61.0,54.0,30.03,West,270,6.0,11.0,79,0.00,,,0.40,TxWx,2013-01-13 13:11:00,
2013-01-13 08:16:00,61.0,54.0,30.03,SSW,202,5.0,11.0,79,0.00,,,0.40,TxWx,2013-01-13 13:16:00,
2013-01-13 08:21:00,61.0,54.0,30.03,West,270,8.0,11.0,79,0.00,,,0.40,TxWx,2013-01-13 13:21:00,
2013-01-13 08:27:00,61.0,54.0,30.03,SSE,157,7.0,10.0,79,0.00,,,0.40,TxWx,2013-01-13 13:27:00,
2013-01-13 08:32:00,62.0,55.0,30.03,WSW,247,10.0,15.0,78,0.00,,,0.40,TxWx,2013-01-13 13:32:00,
2013-01-13 08:37:00,62.0,55.0,30.03,SSW,202,9.0,10.0,77,0.00,,,0.40,TxWx,2013-01-13 13:37:00,
2013-01-13 08:43:00,62.0,55.0,30.03,SSW,202,4.0,11.0,77,0.00,,,0.40,TxWx,2013-01-13 13:43:00,
2013-01-13 08:48:00,62.0,54.0,30.02,SSE,157,7.0,16.0,76,0.00,,,0.40,TxWx,2013-01-13 13:48:00,
2013-01-13 08:53:00,62.0,54.0,30.02,SSW,202,11.0,16.0,76,0.00,,,0.40,TxWx,2013-01-13 13:53:00,
2013-01-13 08:59:00,63.0,55.0,30.02,SSW,202,8.0,16.0,75,0.00,,,0.40,TxWx,2013-01-13 13:59:00,
2013-01-13 09:04:00,63.0,55.0,30.01,SSW,202,10.0,13.0,75,0.00,,,0.40,TxWx,2013-01-13 14:04:00,
2013-01-13 09:10:00,63.0,55.0,30.01,SSE,157,7.0,14.0,74,0.00,,,0.40,TxWx,2013-01-13 14:10:00,
2013-01-13 09:15:00,64.0,55.0,30.01,SSW,202,11.0,13.0,74,0.00,,,0.40,TxWx,2013-01-13 14:15:00,
2013-01-13 09:20:00,63.0,54.0,30.02,SW,225,10.0,17.0,74,0.00,,,0.40,TxWx,2013-01-13 14:20:00,
2013-01-13 09:25:00,63.0,54.0,30.02,SSE,157,8.0,14.0,74,0.00,,,0.40,TxWx,2013-01-13 14:25:00,
2013-01-13 09:31:00,63.0,55.0,30.02,SW,225,8.0,15.0,74,0.00,,,0.40,TxWx,2013-01-13 14:31:00,
2013-01-13 09:36:00,63.0,55.0,30.02,SW,225,6.0,19.0,76,0.00,,,0.40,TxWx,2013-01-13 14:36:00,
2013-01-13 09:41:00,62.0,54.0,30.02,SSW,202,11.0,13.0,76,0.00,,,0.40,TxWx,2013-01-13 14:41:00,
2013-01-13 09:47:00,62.0,55.0,30.02,SSW,202,9.0,14.0,77,0.00,,,0.40,TxWx,2013-01-13 14:47:00,
2013-01-13 09:52:00,62.0,55.0,30.03,SW,225,8.0,11.0,77,0.00,,,0.40,TxWx,2013-01-13 14:52:00,
2013-01-13 09:57:00,61.0,54.0,30.03,WSW,247,6.0,10.0,78,0.00,,,0.40,TxWx,2013-01-13 14:57:00,
2013-01-13 10:02:00,61.0,54.0,30.03,WSW,247,8.0,12.0,79,0.00,,,0.40,TxWx,2013-01-13 15:02:00,
2013-01-13 10:07:00,61.0,54.0,30.02,South,180,7.0,15.0,79,0.00,,,0.40,TxWx,2013-01-13 15:07:00,
2013-01-13 10:13:00,61.0,54.0,30.02,SW,225,7.0,14.0,79,0.00,,,0.40,TxWx,2013-01-13 15:13:00,
2013-01-13 10:19:00,61.0,54.0,30.01,SSW,202,12.0,14.0,79,0.00,,,0.40,TxWx,2013-01-13 15:19:00,
2013-01-13 10:24:00,62.0,55.0,30.01,SW,225,8.0,19.0,78,0.00,,,0.40,TxWx,2013-01-13 15:24:00,
2013-01-13 10:30:00,62.0,55.0,30.02,SSW,202,5.0,19.0,77,0.00,,,0.40,TxWx,2013-01-13 15:30:00,
2013-01-13 10:35:00,62.0,55.0,30.02,SSW,202,14.0,19.0,77,0.00,,,0.40,TxWx,2013-01-13 15:35:00,
2013-01-13 10:41:00,62.0,54.0,30.03,SW,225,14.0,19.0,76,0.00,,,0.40,TxWx,2013-01-13 15:41:00,
2013-01-13 10:47:00,61.0,53.0,30.03,SSW,202,10.0,16.0,76,0.00,,,0.40,TxWx,2013-01-13 15:47:00,
2013-01-13 10:52:00,61.0,54.0,30.03,SW,225,13.0,15.0,78,0.00,,,0.40,TxWx,2013-01-13 15:52:00,
2013-01-13 10:57:00,61.0,54.0,30.03,WSW,247,11.0,16.0,78,0.00,,,0.40,TxWx,2013-01-13 15:57:00,
2013-01-13 11:03:00,61.0,54.0,30.03,SSW,202,10.0,16.0,78,0.00,,,0.40,TxWx,2013-01-13 16:03:00,
2013-01-13 11:08:00,61.0,54.0,30.02,SW,225,13.0,21.0,77,0.00,,,0.40,TxWx,2013-01-13 16:08:00,
2013-01-13 11:13:00,62.0,55.0,30.02,WSW,247,14.0,17.0,77,0.00,,,0.40,TxWx,2013-01-13 16:13:00,
2013-01-13 11:19:00,62.0,55.0,30.02,SSW,202,8.0,13.0,77,0.00,,,0.40,TxWx,2013-01-13 16:19:00,
2013-01-13 11:24:00,62.0,55.0,30.03,SSW,202,6.0,16.0,77,0.00,,,0.40,TxWx,2013-01-13 16:24:00,
2013-01-13 11:30:00,62.0,55.0,30.04,SSW,202,15.0,16.0,77,0.00,,,0.40,TxWx,2013-01-13 16:30:00,
2013-01-13 11:35:00,62.0,55.0,30.04,WSW,247,10.0,13.0,77,0.00,,,0.40,TxWx,2013-01-13 16:35:00,
2013-01-13 11:40:00,63.0,55.0,30.05,SW,225,11.0,15.0,76,0.00,,,0.40,TxWx,2013-01-13 16:40:00,
2013-01-13 11:46:00,60.0,53.0,30.05,WSW,247,12.0,18.0,77,0.00,,,0.40,TxWx,2013-01-13 16:46:00,
2013-01-13 11:51:00,58.0,52.0,30.06,SW,225,14.0,19.0,82,0.00,,,0.40,TxWx,2013-01-13 16:51:00,
2013-01-13 11:56:00,57.0,53.0,30.06,SW,225,18.0,25.0,86,0.00,,,0.40,TxWx,2013-01-13 16:56:00,
2013-01-13 12:02:00,57.0,54.0,30.06,SW,225,18.0,23.0,89,0.00,,,0.40,TxWx,2013-01-13 17:02:00,
2013-01-13 12:07:00,57.0,54.0,30.06,WSW,247,11.0,21.0,89,0.00,,,0.40,TxWx,2013-01-13 17:07:00,
2013-01-13 12:13:00,58.0,54.0,30.06,WSW,247,19.0,20.0,88,0.00,,,0.40,TxWx,2013-01-13 17:13:00,
2013-01-13 12:18:00,58.0,54.0,30.05,SW,225,9.0,20.0,87,0.00,,,0.40,TxWx,2013-01-13 17:18:00,
2013-01-13 12:23:00,58.0,54.0,30.05,SW,225,7.0,18.0,87,0.00,,,0.40,TxWx,2013-01-13 17:23:00,
2013-01-13 12:28:00,59.0,55.0,30.05,WSW,247,8.0,16.0,86,0.00,,,0.40,TxWx,2013-01-13 17:28:00,
2013-01-13 12:34:00,59.0,54.0,30.05,WSW,247,13.0,18.0,85,0.00,,,0.40,TxWx,2013-01-13 17:34:00,
2013-01-13 12:39:00,59.0,54.0,30.06,WSW,247,15.0,19.0,85,0.00,,,0.40,TxWx,2013-01-13 17:39:00,
2013-01-13 12:45:00,58.0,53.0,30.06,WSW,247,11.0,18.0,84,0.00,,,0.40,TxWx,2013-01-13 17:45:00,
2013-01-13 12:50:00,58.0,53.0,30.05,WSW,247,20.0,22.0,85,0.00,,,0.40,TxWx,2013-01-13 17:50:00,
2013-01-13 12:56:00,59.0,54.0,30.05,WSW,247,12.0,20.0,83,0.00,,,0.40,TxWx,2013-01-13 17:56:00,
2013-01-13 13:01:00,60.0,54.0,30.06,WSW,247,22.0,27.0,81,0.00,,,0.40,TxWx,2013-01-13 18:01:00,
2013-01-13 13:07:00,59.0,53.0,30.06,SSW,202,10.0,20.0,82,0.00,,,0.40,TxWx,2013-01-13 18:07:00,
2013-01-13 13:12:00,59.0,53.0,30.06,SW,225,14.0,21.0,82,0.00,,,0.40,TxWx,2013-01-13 18:12:00,
2013-01-13 13:18:00,59.0,54.0,30.05,SSE,157,11.0,16.0,83,0.00,,,0.40,TxWx,2013-01-13 18:18:00,
2013-01-13 13:23:00,58.0,53.0,30.06,WSW,247,11.0,19.0,82,0.00,,,0.40,TxWx,2013-01-13 18:23:00,
2013-01-13 13:28:00,57.0,52.0,30.06,SSW,202,8.0,13.0,83,0.00,,,0.40,TxWx,2013-01-13 18:28:00,
2013-01-13 13:34:00,56.0,52.0,30.07,SW,225,10.0,18.0,86,0.00,,,0.40,TxWx,2013-01-13 18:34:00,
2013-01-13 13:40:00,55.0,51.0,30.07,SW,225,21.0,21.0,86,0.00,,,0.40,TxWx,2013-01-13 18:40:00,
2013-01-13 13:45:00,54.0,50.0,30.07,SW,225,7.0,12.0,86,0.00,,,0.40,TxWx,2013-01-13 18:45:00,
2013-01-13 13:51:00,53.0,49.0,30.07,SW,225,12.0,12.0,87,0.00,,,0.40,TxWx,2013-01-13 18:51:00,
2013-01-13 13:56:00,53.0,50.0,30.08,NW,315,5.0,15.0,88,0.00,,,0.40,TxWx,2013-01-13 18:56:00,
2013-01-13 14:01:00,53.0,50.0,30.08,WSW,247,7.0,14.0,89,0.00,,,0.40,TxWx,2013-01-13 19:01:00,
2013-01-13 14:07:00,54.0,51.0,30.08,West,270,10.0,16.0,89,0.00,,,0.40,TxWx,2013-01-13 19:07:00,
2013-01-13 14:12:00,54.0,51.0,30.09,West,270,8.0,13.0,89,0.00,,,0.40,TxWx,2013-01-13 19:12:00,
2013-01-13 14:17:00,54.0,51.0,30.09,SSW,202,13.0,13.0,88,0.00,,,0.40,TxWx,2013-01-13 19:17:00,
2013-01-13 14:23:00,53.0,50.0,30.09,SW,225,10.0,13.0,88,0.00,,,0.40,TxWx,2013-01-13 19:23:00,
2013-01-13 14:28:00,53.0,50.0,30.10,SW,225,8.0,11.0,89,0.00,,,0.40,TxWx,2013-01-13 19:28:00,
2013-01-13 14:34:00,53.0,50.0,30.10,WSW,247,8.0,11.0,89,0.00,,,0.40,TxWx,2013-01-13 19:34:00,
2013-01-13 14:39:00,54.0,51.0,30.10,WSW,247,6.0,10.0,89,0.00,,,0.40,TxWx,2013-01-13 19:39:00,
2013-01-13 14:44:00,54.0,51.0,30.10,SW,225,6.0,14.0,89,0.00,,,0.40,TxWx,2013-01-13 19:44:00,
2013-01-13 14:49:00,54.0,51.0,30.10,SW,225,5.0,10.0,89,0.00,,,0.40,TxWx,2013-01-13 19:49:00,
2013-01-13 14:55:00,54.0,51.0,30.10,SW,225,7.0,11.0,89,0.00,,,0.40,TxWx,2013-01-13 19:55:00,
2013-01-13 15:00:00,54.0,51.0,30.11,SW,225,10.0,12.0,89,0.00,,,0.40,TxWx,2013-01-13 20:00:00,
2013-01-13 15:06:00,52.0,48.0,30.11,SSW,202,3.0,7.0,87,0.00,,,0.40,TxWx,2013-01-13 20:06:00,
2013-01-13 15:11:00,52.0,49.0,30.11,SW,225,3.0,8.0,89,0.00,,,0.40,TxWx,2013-01-13 20:11:00,
2013-01-13 15:16:00,52.0,49.0,30.12,SW,225,7.0,11.0,90,0.00,,,0.40,TxWx,2013-01-13 20:16:00,
2013-01-13 15:21:00,52.0,49.0,30.12,SSW,202,3.0,8.0,90,0.00,,,0.40,TxWx,2013-01-13 20:21:00,
2013-01-13 15:27:00,50.0,47.0,30.13,SSW,202,5.0,11.0,89,0.00,,,0.40,TxWx,2013-01-13 20:27:00,
2013-01-13 15:32:00,51.0,48.0,30.13,SSW,202,3.0,9.0,91,0.00,,,0.40,TxWx,2013-01-13 20:32:00,
2013-01-13 15:38:00,51.0,48.0,30.13,South,180,5.0,7.0,91,0.00,,,0.40,TxWx,2013-01-13 20:38:00,
2013-01-13 15:43:00,51.0,48.0,30.12,SW,225,7.0,10.0,91,0.00,,,0.40,TxWx,2013-01-13 20:43:00,
2013-01-13 15:48:00,51.0,48.0,30.13,WSW,247,8.0,10.0,91,0.00,,,0.40,TxWx,2013-01-13 20:48:00,
2013-01-13 15:53:00,51.0,48.0,30.13,SSW,202,5.0,10.0,91,0.00,,,0.40,TxWx,2013-01-13 20:53:00,
2013-01-13 15:59:00,50.0,47.0,30.14,South,180,4.0,7.0,90,0.00,,,0.40,TxWx,2013-01-13 20:59:00,
2013-01-13 16:05:00,49.0,46.0,30.14,SW,225,5.0,6.0,90,0.00,,,0.40,TxWx,2013-01-13 21:05:00,
2013-01-13 16:11:00,47.0,44.0,30.14,WSW,247,6.0,10.0,91,0.00,,,0.40,TxWx,2013-01-13 21:11:00,
2013-01-13 16:16:00,47.0,45.0,30.14,SSE,157,8.0,10.0,92,0.00,,,0.40,TxWx,2013-01-13 21:16:00,
2013-01-13 16:22:00,46.0,44.0,30.14,SSW,202,5.0,8.0,93,0.00,,,0.40,TxWx,2013-01-13 21:22:00,
2013-01-13 16:28:00,46.0,44.0,30.14,SE,135,8.0,8.0,94,0.00,,,0.40,TxWx,2013-01-13 21:28:00,
2013-01-13 16:33:00,46.0,44.0,30.14,SW,225,3.0,6.0,94,0.00,,,0.40,TxWx,2013-01-13 21:33:00,
2013-01-13 16:39:00,46.0,45.0,30.14,South,180,4.0,6.0,95,0.00,,,0.40,TxWx,2013-01-13 21:39:00,
2013-01-13 16:44:00,46.0,45.0,30.14,South,180,5.0,8.0,95,0.00,,,0.40,TxWx,2013-01-13 21:44:00,
2013-01-13 16:49:00,46.0,45.0,30.14,SW,225,5.0,9.0,95,0.00,,,0.40,TxWx,2013-01-13 21:49:00,
2013-01-13 16:54:00,46.0,45.0,30.14,SW,225,5.0,6.0,95,0.00,,,0.40,TxWx,2013-01-13 21:54:00,
2013-01-13 17:00:00,46.0,45.0,30.14,South,180,5.0,6.0,95,0.00,,,0.40,TxWx,2013-01-13 22:00:00,
2013-01-13 17:05:00,46.0,45.0,30.14,SW,225,5.0,11.0,96,0.00,,,0.40,TxWx,2013-01-13 22:05:00,
2013-01-13 17:10:00,46.0,45.0,30.14,SSW,202,5.0,9.0,96,0.00,,,0.40,TxWx,2013-01-13 22:10:00,
2013-01-13 17:16:00,46.0,45.0,30.14,SSW,202,6.0,7.0,96,0.00,,,0.40,TxWx,2013-01-13 22:16:00,
2013-01-13 17:21:00,46.0,45.0,30.14,SW,225,5.0,10.0,97,0.00,,,0.40,TxWx,2013-01-13 22:21:00,
2013-01-13 17:27:00,47.0,46.0,30.14,SSW,202,8.0,10.0,97,0.00,,,0.40,TxWx,2013-01-13 22:27:00,
2013-01-13 17:32:00,47.0,46.0,30.14,SW,225,8.0,8.0,96,0.00,,,0.40,TxWx,2013-01-13 22:32:00,
2013-01-13 17:37:00,47.0,46.0,30.14,SW,225,10.0,10.0,96,0.00,,,0.40,TxWx,2013-01-13 22:37:00,
2013-01-13 17:43:00,47.0,46.0,30.14,SW,225,8.0,11.0,96,0.00,,,0.40,TxWx,2013-01-13 22:43:00,
2013-01-13 17:48:00,47.0,46.0,30.14,WSW,247,6.0,9.0,96,0.00,,,0.40,TxWx,2013-01-13 22:48:00,
2013-01-13 17:53:00,47.0,46.0,30.14,SSW,202,6.0,9.0,96,0.00,,,0.40,TxWx,2013-01-13 22:53:00,
2013-01-13 17:59:00,47.0,46.0,30.13,WSW,247,6.0,8.0,96,0.00,,,0.40,TxWx,2013-01-13 22:59:00,
2013-01-13 18:05:00,47.0,46.0,30.13,WSW,247,5.0,10.0,96,0.00,,,0.40,TxWx,2013-01-13 23:05:00,
2013-01-13 18:10:00,48.0,47.0,30.13,WSW,247,5.0,7.0,96,0.00,,,0.40,TxWx,2013-01-13 23:10:00,
2013-01-13 18:15:00,48.0,47.0,30.14,WSW,247,5.0,7.0,96,0.00,,,0.40,TxWx,2013-01-13 23:15:00,
2013-01-13 18:21:00,48.0,47.0,30.14,SSW,202,5.0,8.0,96,0.00,,,0.40,TxWx,2013-01-13 23:21:00,
2013-01-13 18:26:00,48.0,47.0,30.14,SW,225,7.0,10.0,96,0.00,,,0.40,TxWx,2013-01-13 23:26:00,
2013-01-13 18:32:00,48.0,47.0,30.15,SW,225,6.0,11.0,96,0.00,,,0.40,TxWx,2013-01-13 23:32:00,
2013-01-13 18:37:00,48.0,47.0,30.15,SW,225,8.0,8.0,96,0.00,,,0.40,TxWx,2013-01-13 23:37:00,
2013-01-13 18:42:00,48.0,47.0,30.15,SW,225,5.0,10.0,96,0.00,,,0.40,TxWx,2013-01-13 23:42:00,
2013-01-13 18:47:00,48.0,47.0,30.15,SW,225,5.0,7.0,96,0.00,,,0.40,TxWx,2013-01-13 23:47:00,
2013-01-13 18:52:00,48.0,47.0,30.15,SW,225,6.0,8.0,96,0.00,,,0.40,TxWx,2013-01-13 23:52:00,
2013-01-13 18:59:00,48.0,47.0,30.15,SW,225,7.0,10.0,96,0.00,,,0.40,TxWx,2013-01-13 23:59:00,
2013-01-13 19:04:00,48.0,47.0,30.14,SSW,202,5.0,6.0,96,0.00,,,0.40,TxWx,2013-01-14 00:04:00,
2013-01-13 19:09:00,48.0,47.0,30.14,SSW,202,6.0,8.0,96,0.00,,,0.40,TxWx,2013-01-14 00:09:00,
2013-01-13 19:14:00,48.0,47.0,30.14,SSW,202,5.0,8.0,96,0.00,,,0.40,TxWx,2013-01-14 00:14:00,
2013-01-13 19:20:00,48.0,47.0,30.13,South,180,6.0,8.0,96,0.00,,,0.40,TxWx,2013-01-14 00:20:00,
2013-01-13 19:25:00,48.0,47.0,30.12,WSW,247,8.0,9.0,96,0.00,,,0.40,TxWx,2013-01-14 00:25:00,
2013-01-13 19:31:00,48.0,47.0,30.12,WSW,247,4.0,6.0,96,0.00,,,0.40,TxWx,2013-01-14 00:31:00,
2013-01-13 19:36:00,48.0,47.0,30.12,SSW,202,8.0,11.0,96,0.00,,,0.40,TxWx,2013-01-14 00:36:00,
2013-01-13 19:41:00,47.0,46.0,30.13,WSW,247,5.0,10.0,96,0.00,,,0.40,TxWx,2013-01-14 00:41:00,
2013-01-13 19:47:00,47.0,46.0,30.13,SW,225,7.0,8.0,96,0.00,,,0.40,TxWx,2013-01-14 00:47:00,
2013-01-13 19:54:00,47.0,46.0,30.13,WSW,247,6.0,8.0,96,0.00,,,0.40,TxWx,2013-01-14 00:54:00,
2013-01-13 19:59:00,47.0,46.0,30.13,SSW,202,5.0,6.0,96,0.00,,,0.40,TxWx,2013-01-14 00:59:00,
2013-01-13 20:05:00,46.0,45.0,30.13,SSW,202,3.0,9.0,96,0.00,,,0.40,TxWx,2013-01-14 01:05:00,
2013-01-13 20:10:00,46.0,45.0,30.13,SW,225,4.0,7.0,97,0.00,,,0.40,TxWx,2013-01-14 01:10:00,
2013-01-13 20:15:00,46.0,45.0,30.13,WSW,247,6.0,8.0,97,0.00,,,0.40,TxWx,2013-01-14 01:15:00,
2013-01-13 20:20:00,46.0,45.0,30.13,SW,225,5.0,7.0,98,0.00,,,0.40,TxWx,2013-01-14 01:20:00,
2013-01-13 20:25:00,46.0,45.0,30.13,WSW,247,5.0,7.0,98,0.00,,,0.40,TxWx,2013-01-14 01:25:00,
2013-01-13 20:31:00,46.0,45.0,30.13,SSW,202,8.0,8.0,98,0.00,,,0.40,TxWx,2013-01-14 01:31:00,
2013-01-13 20:36:00,46.0,46.0,30.13,SSW,202,3.0,6.0,99,0.00,,,0.40,TxWx,2013-01-14 01:36:00,
2013-01-13 20:41:00,46.0,46.0,30.12,WSW,247,6.0,8.0,99,0.00,,,0.40,TxWx,2013-01-14 01:41:00,
2013-01-13 20:47:00,46.0,46.0,30.12,SW,225,3.0,5.0,99,0.00,,,0.40,TxWx,2013-01-14 01:47:00,
2013-01-13 20:52:00,46.0,46.0,30.12,SSW,202,3.0,6.0,99,0.00,,,0.41,TxWx,2013-01-14 01:52:00,
2013-01-13 20:57:00,46.0,46.0,30.12,SW,225,2.0,5.0,99,0.06,,,0.41,TxWx,2013-01-14 01:57:00,
2013-01-13 21:03:00,46.0,46.0,30.12,SSW,202,6.0,8.0,99,0.06,,,0.42,TxWx,2013-01-14 02:03:00,
2013-01-13 21:08:00,45.0,45.0,30.12,SW,225,4.0,8.0,100,0.06,,,0.42,TxWx,2013-01-14 02:08:00,
2013-01-13 21:15:00,45.0,45.0,30.11,SW,225,5.0,5.0,100,0.06,,,0.42,TxWx,2013-01-14 02:15:00,
2013-01-13 21:20:00,45.0,45.0,30.11,WSW,247,3.0,5.0,100,0.00,,,0.42,TxWx,2013-01-14 02:20:00,
2013-01-13 21:25:00,45.0,45.0,30.10,South,180,3.0,6.0,100,0.00,,,0.43,TxWx,2013-01-14 02:25:00,
2013-01-13 21:30:00,45.0,45.0,30.10,SW,225,3.0,5.0,100,0.06,,,0.43,TxWx,2013-01-14 02:30:00,
2013-01-13 21:35:00,44.0,44.0,30.10,SW,225,5.0,6.0,100,0.06,,,0.43,TxWx,2013-01-14 02:35:00,
2013-01-13 21:41:00,44.0,44.0,30.10,SW,225,3.0,5.0,100,0.00,,,0.43,TxWx,2013-01-14 02:41:00,
2013-01-13 21:46:00,45.0,45.0,30.10,South,180,2.0,7.0,100,0.00,,,0.43,TxWx,2013-01-14 02:46:00,
2013-01-13 21:51:00,45.0,45.0,30.10,WSW,247,4.0,5.0,100,0.00,,,0.43,TxWx,2013-01-14 02:51:00,
2013-01-13 21:57:00,45.0,45.0,30.10,WSW,247,3.0,7.0,100,0.00,,,0.43,TxWx,2013-01-14 02:57:00,
2013-01-13 22:02:00,45.0,45.0,30.10,SSW,202,2.0,5.0,100,0.00,,,0.44,TxWx,2013-01-14 03:02:00,
2013-01-13 22:07:00,45.0,45.0,30.09,South,180,3.0,4.0,100,0.06,,,0.44,TxWx,2013-01-14 03:07:00,
2013-01-13 22:12:00,45.0,45.0,30.09,South,180,3.0,5.0,100,0.06,,,0.44,TxWx,2013-01-14 03:12:00,
2013-01-13 22:18:00,45.0,45.0,30.08,SSE,157,5.0,6.0,100,0.06,,,0.45,TxWx,2013-01-14 03:18:00,
2013-01-13 22:23:00,45.0,45.0,30.07,SSE,157,3.0,4.0,100,0.06,,,0.45,TxWx,2013-01-14 03:23:00,
2013-01-13 22:28:00,45.0,45.0,30.06,SE,135,3.0,3.0,100,0.00,,,0.45,TxWx,2013-01-14 03:28:00,
2013-01-13 22:34:00,45.0,45.0,30.06,SE,135,3.0,5.0,100,0.00,,,0.45,TxWx,2013-01-14 03:34:00,
2013-01-13 22:39:00,45.0,45.0,30.06,SSE,157,3.0,5.0,100,0.00,,,0.45,TxWx,2013-01-14 03:39:00,
2013-01-13 22:44:00,46.0,46.0,30.06,SSE,157,2.0,4.0,100,0.00,,,0.46,TxWx,2013-01-14 03:44:00,
2013-01-13 22:50:00,46.0,46.0,30.06,SSE,157,2.0,4.0,100,0.06,,,0.46,TxWx,2013-01-14 03:50:00,
2013-01-13 22:55:00,45.0,45.0,30.05,SSW,202,3.0,6.0,100,0.06,,,0.46,TxWx,2013-01-14 03:55:00,
2013-01-13 23:00:00,45.0,45.0,30.05,South,180,3.0,5.0,100,0.00,,,0.00,TxWx,2013-01-14 04:00:00,
2013-01-13 23:06:00,45.0,45.0,30.04,South,180,2.0,5.0,100,0.00,,,0.00,TxWx,2013-01-14 04:06:00,
2013-01-13 23:11:00,45.0,45.0,30.04,SE,135,3.0,6.0,100,0.00,,,0.00,TxWx,2013-01-14 04:11:00,
2013-01-13 23:16:00,45.0,45.0,30.04,SSW,202,3.0,5.0,100,0.00,,,0.00,TxWx,2013-01-14 04:16:00,
2013-01-13 23:21:00,45.0,45.0,30.04,WSW,247,3.0,5.0,100,0.00,,,0.00,TxWx,2013-01-14 04:21:00,
2013-01-13 23:27:00,45.0,45.0,30.05,West,270,3.0,4.0,100,0.00,,,0.00,TxWx,2013-01-14 04:27:00,
2013-01-13 23:32:00,45.0,45.0,30.05,West,270,6.0,6.0,100,0.00,,,0.00,TxWx,2013-01-14 04:32:00,
2013-01-13 23:37:00,45.0,45.0,30.05,WNW,292,3.0,7.0,100,0.00,,,0.00,TxWx,2013-01-14 04:37:00,
2013-01-13 23:43:00,44.0,44.0,30.04,WSW,247,6.0,6.0,100,0.00,,,0.00,TxWx,2013-01-14 04:43:00,
2013-01-13 23:48:00,44.0,44.0,30.04,West,270,3.0,5.0,100,0.00,,,0.00,TxWx,2013-01-14 04:48:00,
2013-01-13 23:54:00,44.0,44.0,30.04,WSW,247,3.0,4.0,100,0.00,,,0.00,TxWx,2013-01-14 04:54:00,
2013-01-13 23:59:00,44.0,44.0,30.03,WSW,247,3.0,3.0,100,0.00,,,0.00,TxWx,2013-01-14 04:59:00,